This is the latest recevied weather packets stored in our database for station/object PA5MB-15. If no packets are shown the sender has not sent any weather packets the latest 1 day(s).
| Time | Temp. | Humidity | Pressure | Rain* | Wind** | Luminosity | Snow |
|---|---|---|---|---|---|---|---|
| 1777998031 | 14.44° C | 78% | 1010.6 hPa | 0 mm | 1.34 m/s, 357° | 20 W/m² | - |
| 1777997723 | 14.44° C | 78% | 1010.7 hPa | 0 mm | 0.89 m/s, 313° | 19 W/m² | - |
| 1777997436 | 14.44° C | 79% | 1010.7 hPa | 0 mm | 1.34 m/s, 341° | 22 W/m² | - |
| 1777997143 | 14.44° C | 79% | 1010.8 hPa | 0 mm | 1.34 m/s, 359° | 20 W/m² | - |
| 1777996833 | 14.44° C | 78% | 1010.7 hPa | 0 mm | 1.34 m/s, 355° | 26 W/m² | - |
| 1777996539 | 14.44° C | 78% | 1010.7 hPa | 0 mm | 1.34 m/s, 357° | 30 W/m² | - |
| 1777996231 | 14.44° C | 78% | 1010.8 hPa | 0 mm | 1.34 m/s, 5° | 27 W/m² | - |
| 1777995930 | 14.44° C | 78% | 1010.8 hPa | 0 mm | 1.34 m/s, 354° | 22 W/m² | - |
| 1777995631 | 14.44° C | 78% | 1010.8 hPa | 0 mm | 0.89 m/s, 339° | 28 W/m² | - |
| 1777995331 | 15° C | 77% | 1010.8 hPa | 0 mm | 1.79 m/s, 351° | 35 W/m² | - |
| 1777995031 | 15° C | 76% | 1010.8 hPa | 0 mm | 1.34 m/s, 342° | 38 W/m² | - |
| 1777994731 | 15° C | 77% | 1010.9 hPa | 0 mm | 1.34 m/s, 348° | 43 W/m² | - |
| 1777994431 | 14.44° C | 77% | 1011 hPa | 0 mm | 1.34 m/s, 349° | 45 W/m² | - |
| 1777994131 | 14.44° C | 79% | 1011 hPa | 0 mm | 0.89 m/s, 353° | 44 W/m² | - |
| 1777993823 | 14.44° C | 79% | 1011.1 hPa | 0 mm | 1.34 m/s, 359° | 45 W/m² | - |
| 1777993531 | 13.89° C | 79% | 1011.1 hPa | 0 mm | 1.34 m/s, 8° | 49 W/m² | - |
| 1777993231 | 13.89° C | 79% | 1011.2 hPa | 0 mm | 1.79 m/s, 348° | 46 W/m² | - |
| 1777992934 | 14.44° C | 79% | 1011.2 hPa | 0 mm | 0.89 m/s, 5° | 52 W/m² | - |
| 1777992632 | 13.89° C | 80% | 1011.2 hPa | 0 mm | 1.34 m/s, 339° | 47 W/m² | - |
| 1777992331 | 13.89° C | 80% | 1011.2 hPa | 0 mm | 1.34 m/s, 349° | 46 W/m² | - |
| 1777992021 | 13.33° C | 82% | 1011.2 hPa | 0 mm | 0.45 m/s, 346° | 41 W/m² | - |
| 1777991731 | 12.78° C | 83% | 1011.3 hPa | 0 mm | 0.89 m/s, 359° | 41 W/m² | - |
| 1777991431 | 12.78° C | 85% | 1011.3 hPa | 0 mm | 1.34 m/s, 359° | 37 W/m² | - |
| 1777991143 | 12.22° C | 86% | 1011.5 hPa | 0 mm | 1.34 m/s, 350° | 12 W/m² | - |
| 1777990831 | 12.22° C | 86% | 1011.5 hPa | 0 mm | 1.34 m/s, 1° | 12 W/m² | - |
* Rain latest hour (hover to see other rain measurements)
** Current wind speed in m/s (hover to see current wind gust speed)